Regional Weather Roundup
Issued by NWS

Home | Current Version | Previous Version | Graphics & Text | Print | Product List | Glossary On
Versions: 1 2 3 4 5 6 7 8 9 10 11 12 13 14 15 16 17 18 19 20 21 22 23 24 25 26 27 28 29 30 31 32 33 34 35 36 37 38 39 40 41 42 43 44 45 46 47 48 49 50
000
ASUS43 KIND 270509
RWRIN

WEATHER ROUNDUP FOR INDIANA
NATIONAL WEATHER SERVICE INDIANAPOLIS IN
100 AM EDT THU APR 27 2017

NOTE: "FAIR" INDICATES FEW OR NO CLOUDS BELOW 12,000 FEET WITH NO
SIGNIFICANT WEATHER AND/OR OBSTRUCTIONS TO VISIBILITY.

* - STATION DOES NOT REPORT WEATHER SUCH AS PRECIPITATION OR FOG.

+ - STATION NOT QUALITY CONTROLLED BY THE NATIONAL WEATHER SERVICE.
    USE DATA WITH CAUTION...ESPECIALLY DEWPOINT AND RELATIVE
    HUMIDITY OBSERVATIONS.

INZ001>003-010>013-019-020-270600-
NORTHWEST INDIANA

CITY           SKY/WX    TMP DP  RH WIND       PRES   REMARKS
GARY /AIRPORT/ LGT RAIN  62  60  93 SE5       29.46F
KNOX *+        CLOUDY    61  52  72 W6        29.47S
LA PORTE +     RAIN      60  59  96 W3        29.48F
MICHIGAN CITY+ LGT SNOW  59  59 100 CALM      29.47S
MONTICELLO +   CLOUDY    60  59  96 CALM      29.48S
RENSSELAER +   RAIN      61  59  94 SE6       29.48R
VALPARAISO     LGT RAIN  61  60  97 SW5       29.47F FOG

$$

LMZ046-743>745-270600-
SOUTHERN LAKE MICHIGAN

STATION/POSITION TIME  TEMP    WIND        PRES    WAVE
                       AIR SEA DIR/SP/G            HT
                 (UTC) (F)     (DEG/KT/KT) (MB)    (FT)
BURNS HARBOR     0440   61     180/  6/ 10  998.3F
MICHIGAN CITY    0440   59     220/  2/  2   N/A
5NW MICH CITY    0500   58 49                N/A     1

$$

INZ004-005-014>016-021>024-270600-
NORTH CENTRAL INDIANA

CITY           SKY/WX    TMP DP  RH WIND       PRES   REMARKS
GOSHEN         MOCLDY    64  59  83 SW3       29.47S
LOGANSPORT +   CLOUDY    59  59 100 SW6       29.49F
PERU/GRISSOM   CLOUDY    61  61 100 CALM      29.47F
ROCHESTER +    CLOUDY    64  61  88 NW3       29.48F
SOUTH BEND     CLOUDY    61  59  93 CALM      29.48F
WARSAW +       PTCLDY    63  59  88 SE3       29.47F

$$

INZ006>009-017-018-025>027-270600-
NORTHEAST INDIANA

CITY           SKY/WX    TMP DP  RH WIND       PRES   REMARKS
ANGOLA *+      CLEAR     63  54  72 SE6       29.51R
AUBURN +       PTCLDY    61  57  88 SE3       29.51S
FORT WAYNE     MOCLDY    63  56  78 S9        29.50F
HUNTINGTON +   PTCLDY    63  59  86 S8        29.49F
KENDALLVILLE + PTCLDY    61  57  87 SE9       29.51S

$$

INZ028-029-035-036-043>045-051>053-270600-
WEST CENTRAL INDIANA

CITY           SKY/WX    TMP DP  RH WIND       PRES   REMARKS
CRAWFORDSVL +  MOCLDY    57  57 100 CALM      29.50F
GREENCASTLE +  CLOUDY    59  57  94 CALM      29.53R
LAFAYETTE      CLOUDY    60  60 100 CALM      29.48F
TERRE HAUTE    CLOUDY    60  58  92 SW6       29.53R

$$

INZ030>032-037>040-046>048-054>057-064-065-270600-
CENTRAL INDIANA

CITY           SKY/WX    TMP DP  RH WIND       PRES   REMARKS
CP ATTERBURY + CLOUDY    70  54  56 S9        29.53S
FISHERS *+     CLOUDY    70  57  64 S15G21    29.50F
FRANKFORT +    CLOUDY    64  61  90 W8        29.51S
GREENWOOD *+   CLOUDY    73  53  49 S15G21    29.52S
INDIANAPOLIS   CLOUDY    73  54  51 S17G28    29.49S
-EAGLE CREEK   CLOUDY    73  54  51 S7        29.48F
KOKOMO +       CLOUDY    65  59  81 S13       29.49F
MARION +       CLOUDY    64  55  72 S12       29.51S
MT COMFORT *+  CLOUDY    68  54  60 S8        29.52S
SHELBYVILLE    PTCLDY    70  53  54 S9        29.52F
ZIONSVILLE +   CLOUDY    65  57  74 S10       29.50S

$$

INZ033-034-041-042-049-050-058-059-270600-
EAST CENTRAL INDIANA

CITY           SKY/WX    TMP DP  RH WIND       PRES   REMARKS
MUNCIE         CLOUDY    73  51  46 S8        29.51F
RICHMOND +     PTCLDY    61  50  67 SE10      29.57S

$$

INZ060-061-067>069-081>083-085>088-270600-
SOUTHWEST INDIANA

CITY           SKY/WX    TMP DP  RH WIND       PRES   REMARKS
EVANSVILLE     TSTM      61  58  90 SW8       29.61R FOG
HUNTINGBURG *+ LGT RAIN  63  58  83 W8        29.57R
WASHINGTON +   CLOUDY    62  55  78 SW7       29.56R

$$

INZ062-063-066-070>080-084-089>092-270600-
SOUTH CENTRAL AND SOUTHEAST INDIANA

CITY           SKY/WX    TMP DP  RH WIND       PRES   REMARKS
BEDFORD +      CLOUDY    66  55  68 SW7       29.54R
BLOOMINGTON    CLOUDY    64  58  80 SW10      29.53S
MADISON *+     CLOUDY    72  54  53 S10       29.59R
NORTH VERNON + PTCLDY    70  55  60 S12       29.56R
SEYMOUR +      PTCLDY    72  55  56 S12       29.54

$$





USA.gov is the U.S. government's official web portal to all federal, state and local government web resources and services.